Regional Weather Roundup
Issued by NWS

Home | Current Version | Previous Version | Text Only | Print | Product List | Glossary On
Versions: 1 2 3 4 5 6 7 8 9 10 11 12 13 14 15 16 17 18 19 20 21 22 23 24 25 26 27 28 29 30 31 32 33 34 35 36 37 38 39 40 41 42 43 44 45 46 47 48 49 50
000
ASUS46 KLOX 172112
RWRCA

SOUTHERN CALIFORNIA WEATHER ROUNDUP
NATIONAL WEATHER SERVICE OXNARD CALIFORNIA
200 PM PDT WED SEP 17 2014

NOTE: "FAIR" INDICATES FEW OR NO CLOUDS BELOW 12,000 FEET WITH NO
SIGNIFICANT WEATHER AND/OR OBSTRUCTIONS TO VISIBILITY.

  -  STATIONS PRECEEDED BY AN ASTERISK (*) ARE NOT NWS OR FAA
     STATIONS AND ARE NOT SUBJECT TO NWS AND FAA QUALITY CONTROL.

CAZ041-042-087-172200-
LA AND ORANGE COUNTY COASTAL AREAS


CITY           SKY/WX    TMP DP  RH WIND       PRES   REMARKS
L.A. DOWNTOWN  SUNNY     90  58  33 VRB5      29.73F
L.A. AIRPORT   MOSUNNY   81  58  45 W15       29.74F
LONG BEACH     SUNNY     92  58  31 NW16      29.72F HX  91

CITY           SKY/WX    TMP DP  RH WIND       PRES   REMARKS
AVALON           N/A     82 N/A N/A N3          N/A
FULLERTON      SUNNY     96  58  27 SW12G18   29.71F HX  95
*GETTY CENTER    N/A     95  54  24 S9          N/A  HX  93
HAWTHORNE      SUNNY     85  59  41 W10       29.74F
*LEO CARRILLO    N/A     80  60  50 W14         N/A
*LOS ALAMITOS  SUNNY     93  58  30 SW9       29.72F HX  92
*REDONDO BEACH   N/A     77  61  58 S7        29.75F
SANTA ANA      MOSUNNY   91  58  32 SW12      29.73F HX  90
STA MONICA APT SUNNY     88  58  36 SW10      29.74F
*STA MON PIER    N/A     73  65  77 S7        29.73F
TORRANCE       MOSUNNY   86  55  35 NW16      29.75F
*UCLA            N/A     88  50  27 SW8       29.71F

$$

CAZ547-548-048-172200-
LA COUNTY VALLEYS AND INLAND EMPIRE


CITY           SKY/WX    TMP DP  RH WIND       PRES   REMARKS
BURBANK        SUNNY     95  57  27 S9        29.74F HX  94
VAN NUYS       MOSUNNY   98  56  24 S8        29.73F HX  96

CITY           SKY/WX    TMP DP  RH WIND       PRES   REMARKS
CORONA AIRPORT CLEAR     98  62  30 W16G22    29.72F HX  99
*CHATSWORTH      N/A     97  61  30 SW12      29.66F HX  97
CHINO          MOSUNNY  100  61  27 W17G23    29.73F HX 101
MARCH AFB      SUNNY     98  61  29 N9G18     29.77F HX  98
*NORTHRIDGE      N/A     99  54  22 SE5G10      N/A  HX  96
ONTARIO        MOSUNNY   99  60  27 W16G24    29.74F HX  99
*PASADENA        N/A     99  64  32 CALM        N/A  HX 101
POMONA         MOSUNNY   95  59  30 SW15      29.78  HX  94
RIVERSIDE      SUNNY     99  60  27 W16G23    29.72F HX  99
SAN BERNARDINO MOSUNNY   63  55  77 W9        29.74
*SAN GABRIEL     N/A     95  55  26 CALM      29.67F HX  93
*SAN RAFAEL HI   N/A     97  61  30 NE13        N/A  HX  97
*SAUGUS          N/A     98  57  25 S14G25      N/A  HX  97
*WHITEMAN AP   SUNNY     95  59  30 SE6       29.79F HX  94
*WHITTIER HILL   N/A     96  64  34 SW14        N/A  HX  98
*WOODLAND HILL   N/A     99  54  22 S6          N/A  HX  96

$$

CAZ054-055-172200-
LA AND SAN BERNARDINO COUNTY MOUNTAINS


CITY           SKY/WX    TMP DP  RH WIND       PRES   REMARKS
*BIG BEAR AIRP MOCLDY    72  45  37 E8        30.16F
MT WILSON NWS    N/A     81  55  41 MISG        N/A
SANDBERG       SUNNY     91  50  24 SE17G29   30.00F
*WARM SPRINGS    N/A     94  54  25 SE3         N/A  HX  92

$$

CAZ028-029-059-060-099-172200-
ANTELOPE VALLEY AND SURROUNDING AREAS


CITY           SKY/WX    TMP DP  RH WIND       PRES   REMARKS
LANCASTER      SUNNY     97  50  20 W5        29.81F HX  94
PALMDALE       MOSUNNY   96  50  20 CALM      29.83F HX  93
*POPPY PARK      N/A    100  56  22 SW14G25     N/A  HX  98

CITY           SKY/WX    TMP DP  RH WIND       PRES   REMARKS
29 PALMS       MOSUNNY   92  59  33 S9        29.88F HX  91
BARSTOW/DAGGET MOSUNNY   97  55  24 E8        29.80F HX  95
BISHOP         MOSUNNY   95  41  15 S17G29    29.86F HX  91
CHINA LAKE     MOSUNNY   99  50  19 SE7       29.79F HX  96
EDWARDS AFB    MOSUNNY   96  46  18 NW5       29.79F HX  93
MOJAVE         FAIR      95  46  18 SW5       29.84F HX  91
NEEDLES        SUNNY     97  60  29 VRB3      29.76F HX  97
VICTORVILLE    MOSUNNY   93  48  21 CALM      29.86F HX  90

$$

CAZ039-040-172200-
VENTURA AND SANTA BARBARA COUNTY COAST


CITY           SKY/WX    TMP DP  RH WIND       PRES   REMARKS
CAMARILLO      SUNNY     84  60  44 SW8       29.75F
NWS OXNARD       N/A     78  61  54 CALM      29.75F
OXNARD AIRPORT SUNNY     75  61  61 W20       29.76F
*POINT MUGU    MOSUNNY   81  62  52 W14       29.77F
SBA APT/GOLETA SUNNY     85  56  37 CALM      29.74F
*SANTA BARBARA   N/A     86  60  40 CALM      29.82F
*VENTURA         N/A     82  62  50 SW5       29.78F

$$

CAZ044-045-172200-
VENTURA COUNTY VALLEYS


CITY           SKY/WX    TMP DP  RH WIND       PRES   REMARKS
*SIMI VALLEY     N/A     92  58  31 W9        29.67F HX  91
*OJAI            N/A     99  59  26 CALM      29.66F HX  99
*FILLMORE        N/A     96  57  26 CALM      29.62F HX  95

$$

CAZ053-172200-
VENTURA COUNTY MOUNTAINS


CITY           SKY/WX    TMP DP  RH WIND       PRES   REMARKS
*LOCKWOOD VLY    N/A     82  43  24 MISG        N/A

$$

CAZ034-035-036-172200-
CENTRAL COAST AND SANTA YNEZ VALLEY


CITY           SKY/WX    TMP DP  RH WIND       PRES   REMARKS
SAN LUIS OBISP SUNNY     80  53  39 NW13      29.82F
SANTA MARIA    SUNNY     79  57  46 NW8       29.84F

CITY           SKY/WX    TMP DP  RH WIND       PRES   REMARKS
*CAL POLY SLO    N/A     79  57  47 W7          N/A
*LOMPOC        SUNNY     73  59  60 W20       29.84F
*PISMO BEACH     N/A     66  60  82 W7        29.85S
*SANTA YNEZ    FAIR      90  46  22 W12G17    29.82S

$$

CAZ037-038-051-172200-
SAN LUIS OBISPO COUNTY INTERIOR AND CUYAMA VALLEY


CITY           SKY/WX    TMP DP  RH WIND       PRES   REMARKS
*CUYAMA          N/A     93  40  16 NW18      29.69F
PASO ROBLES    SUNNY     95  46  18 VRB7      29.78F HX  91

$$

CAZ032-033-061-172200-
SOUTHERN DESERTS


CITY           SKY/WX    TMP DP  RH WIND       PRES   REMARKS
BLYTHE         MOSUNNY   95  65  37 N3        29.73F HX  97
IMPERIAL       SUNNY     98  66  34 E8        29.68F HX 101
PALM SPRINGS   MOSUNNY  101  62  27 E7        29.72F HX 102
THERMAL        MOSUNNY  102  62  26 SE9       29.66F HX 104

$$

ELSEWHERE ACROSS THE WESTERN UNITED STATES AND MEXICO


CITY           SKY/WX    TMP DP  RH WIND       PRES   REMARKS
DENVER, CO     MOSUNNY   89  31  12 CALM      30.03F
GRAND CANYON,  MOSUNNY   73  49  42 E17G25    30.17F
HONOLULU, HI   CLOUDY    82  70  65 S7        29.96F
KAHULUI, MAUI  MOSUNNY   86  72  62 N10       29.97F HX  92
LAKE TAHOE, CA SUNNY     79  32  18 S13G28    30.04F
LAS VEGAS, NV  MOSUNNY   94  58  29 VRB7      29.80F HX  93
MAMMOTH LAKES, PTSUNNY   81  34  18 W14G21    30.12F
MEXICO CITY, M PTSUNNY   75  46  35 S17       30.27F
PHOENIX, AZ    CLOUDY    81  68  64 NE5       29.78F
PORTLAND, OR   CLOUDY    75  55  49 W7        29.70F
RENO, NV       MOSUNNY   90  34  13 SW22G32   29.88F
SALT LAKE CITY MOSUNNY   93  37  14 VRB3      29.91F
SAN DIEGO, CA  MOSUNNY   82  69  64 NW17      29.74F
SAN FRANCISCO, MOSUNNY   77  60  55 VRB7      29.78F
SAN JOSE, CA   MOSUNNY   82  58  43 NW12      29.76F
SEATTLE, WA    CLOUDY    70  56  61 NW6       29.75F
TIJUANA, MEX   MOSUNNY   86  63  45 W12       29.76S

$$

STATION/POSITION TIME  TEMP    WIND        PRES    VSBY  WAVE
                       AIR SEA DIR/SP/G                  HT/PER
                 (UTC) (F)     (DEG/KT/KT) (MB)    (MI)  (FT/S)
POINT ARGUELLO B NOT AVBL
WEST SANTA BARBA 2100   61 61  310/ 17/ 21 1008.8F         5/17
POINT CONCEPTION NOT AVBL
EAST SANTA BARBA 2100          250/ 19       N/A
SANTA MONICA BAY 2100   74 76  330/  4/  6 1007.3F         4/17



USA.gov is the U.S. government's official web portal to all federal, state and local government web resources and services.